User: anonymous   Login
Location: Unspecified
(0.0000°N, 0.0000°E)
Time: 15:53:23
(UTC+00:00)
Language:

Cosmos 1544 - Orbit

View from above orbital plane
View from above orbital plane
View from above satellite
View from above satellite

Ground track
Ground track

The orbit data is extracted from the following two-line orbital elements,

1 14819U 84027A   18203.45204843 +.00000984 +00000-0 +35881-4 0  9998
2 14819 082.4844 345.1551 0015473 073.4125 286.8811 15.26794192876631
Epoch (UTC): 22 July 2018 10:50:56
Eccentricity: 0.0015473
inclination: 82.4844°
perigee height: 475 km
apogee height: 496 km
right ascension of ascending node: 345.1551°
argument of perigee: 73.4125°
revolutions per day: 15.26794192
mean anomaly at epoch: 286.8811°
orbit number at epoch: 87663

The dashed part of the orbit path shows where the satellite is in the earth's shadow,  

DLR